GW2280 Weather Reports


Display with metric or nautical units.
time (UTC)temp
F
wind
direction
speed
MPH
gust
MPH
rain 1hr
in
rain 24hr
in
rain mn
in
humidity
%
barometer
mb
20240518034013 55 62 4.0 9.0 0.00 0.00 0.00 88 1019.3
20240518033509 55 88 4.0 9.0 0.00 0.00 0.00 88 1019.3
20240518033032 55 67 5.0 9.0 0.00 0.00 0.00 87 1019.2
20240518032513 55 67 4.0 9.0 0.00 0.00 0.00 88 1019.3
20240518032014 55 58 4.0 9.0 0.00 0.00 0.00 88 1019.2
20240518031524 55 63 3.0 7.0 0.00 0.00 0.00 88 1019.3
20240518031013 55 59 4.0 7.0 0.00 0.00 0.00 88 1019.3
20240518030511 55 74 3.0 6.0 0.00 0.00 0.00 89 1019.3
20240518030024 55 61 3.0 6.0 0.00 0.00 0.00 89 1019.4
20240518025513 55 36 3.0 6.0 0.00 0.00 0.00 89 1019.5
20240518025015 55 36 3.0 6.0 0.00 0.00 0.00 89 1019.5
20240518024521 55 60 3.0 7.0 0.00 0.00 0.00 89 1019.4
20240518024011 55 57 3.0 9.0 0.00 0.00 0.00 89 1019.4
20240518023510 55 62 3.0 9.0 0.00 0.00 0.00 89 1019.4
20240518023024 55 74 4.0 8.0 0.00 0.00 0.00 89 1019.3
20240518022514 55 78 5.0 9.0 0.00 0.00 0.00 89 1019.4
20240518022012 55 96 4.0 9.0 0.00 0.00 0.00 89 1019.4
20240518021522 55 75 5.0 9.0 0.00 0.00 0.00 89 1019.4
20240518021014 55 74 5.0 9.0 0.00 0.00 0.00 88 1019.5
20240518020516 55 86 6.0 9.0 0.00 0.00 0.00 89 1019.6
20240518020016 55 88 5.0 9.0 0.00 0.00 0.00 88 1019.5
20240518015514 55 103 5.0 8.0 0.00 0.00 0.00 88 1019.4
20240518015012 55 83 4.0 8.0 0.00 0.00 0.00 88 1019.4
20240518014523 55 105 4.0 9.0 0.00 0.00 0.00 88 1019.4
20240518014014 55 88 4.0 9.0 0.00 0.00 0.00 88 1019.4
20240518013514 56 98 5.0 9.0 0.00 0.00 0.00 88 1019.4
20240518013018 56 92 5.0 10.0 0.00 0.00 0.00 88 1019.3
20240518012514 56 128 5.0 10.0 0.00 0.00 0.00 87 1019.3
20240518012014 56 108 5.0 9.0 0.00 0.00 0.00 87 1019.2
20240518011526 56 98 4.0 8.0 0.00 0.00 0.00 87 1019.3
20240518011013 56 96 4.0 8.0 0.00 0.00 0.00 87 1019.4
20240518010514 56 105 3.0 7.0 0.00 0.00 0.00 87 1019.4
20240518010020 56 87 3.0 7.0 0.00 0.00 0.00 86 1019.5
20240518005515 56 100 3.0 7.0 0.00 0.00 0.00 86 1019.4
20240518005012 56 97 3.0 7.0 0.00 0.00 0.00 86 1019.4
20240518004516 57 66 3.0 7.0 0.00 0.00 0.00 86 1019.2
20240518004013 57 96 3.0 6.0 0.00 0.00 0.00 86 1019.2
20240518003514 57 90 2.0 6.0 0.00 0.00 0.00 86 1019.1
20240518003022 57 102 2.0 6.0 0.00 0.00 0.00 85 1019.1
20240518002517 57 99 3.0 6.0 0.00 0.00 0.00 85 1019.1
20240518002011 57 89 3.0 6.0 0.00 0.00 0.00 85 1019.1
20240518001525 57 101 2.0 6.0 0.00 0.00 0.00 84 1019.1
20240518001014 57 100 1.0 6.0 0.00 0.00 0.00 84 1019.1
20240518000512 57 84 3.0 6.0 0.00 0.00 0.00 84 1019.1
20240518000018 58 82 3.0 6.0 0.00 0.00 0.00 83 1019.1
20240517235512 58 96 2.0 6.0 0.00 0.00 0.00 83 1019.0
20240517235013 58 87 2.0 9.0 0.00 0.00 0.00 82 1019.0
20240517234516 58 92 3.0 9.0 0.00 0.00 0.00 82 1019.0
20240517234014 58 0 3.0 9.0 0.00 0.00 0.00 81 1018.9
20240517233514 59 80 1.0 9.0 0.00 0.00 0.00 80 1018.9
20240517233017 59 69 3.0 9.0 0.00 0.00 0.00 80 1018.9
20240517232511 59 93 5.0 9.0 0.00 0.00 0.00 80 1019.0
20240517232014 59 90 4.0 9.0 0.00 0.00 0.00 79 1018.9
20240517231521 59 107 4.0 8.0 0.00 0.00 0.00 78 1018.8
20240517231014 60 109 4.0 8.0 0.00 0.00 0.00 78 1018.9
20240517230514 60 108 2.0 8.0 0.00 0.00 0.00 77 1018.9
20240517230013 60 88 4.0 8.0 0.00 0.00 0.00 75 1018.9
20240517225511 60 0 3.0 7.0 0.00 0.00 0.00 75 1019.0
20240517225011 60 77 1.0 4.0 0.00 0.00 0.00 75 1019.1
20240517224516 60 134 1.0 9.0 0.00 0.00 0.00 74 1019.1
20240517224014 61 115 3.0 10.0 0.00 0.00 0.00 73 1019.1
20240517223513 61 110 5.0 11.0 0.00 0.00 0.00 73 1019.0
20240517223017 61 101 5.0 12.0 0.00 0.00 0.00 73 1018.9
20240517222515 61 155 8.0 12.0 0.00 0.00 0.00 72 1018.9
20240517222015 62 106 7.0 12.0 0.00 0.00 0.00 72 1018.9
20240517221517 62 118 2.0 12.0 0.00 0.00 0.00 73 1018.9
20240517221012 62 144 5.0 12.0 0.00 0.00 0.00 74 1018.8
20240517220512 62 110 7.0 13.0 0.00 0.00 0.00 73 1018.9
20240517220030 62 129 8.0 13.0 0.00 0.00 0.00 74 1018.9
20240517215514 62 120 6.0 13.0 0.00 0.00 0.00 73 1018.8
20240517215015 62 128 6.0 15.0 0.00 0.00 0.00 74 1018.9
20240517214515 62 119 8.0 15.0 0.00 0.00 0.00 75 1018.9
20240517214013 62 161 11.0 15.0 0.00 0.00 0.00 74 1018.9
20240517213517 63 172 6.0 14.0 0.00 0.00 0.00 73 1018.9
20240517213014 63 173 7.0 14.0 0.00 0.00 0.00 72 1018.8
20240517212513 63 110 7.0 15.0 0.00 0.00 0.00 72 1018.9
20240517212014 64 117 5.0 15.0 0.00 0.00 0.00 73 1018.8
20240517211518 64 126 7.0 15.0 0.00 0.00 0.00 72 1018.8
20240517211013 64 180 5.0 13.0 0.00 0.00 0.00 72 1018.8
20240517210512 64 91 7.0 17.0 0.00 0.00 0.00 71 1018.8
20240517210029 64 115 5.0 17.0 0.00 0.00 0.00 75 1018.8
20240517205515 64 128 9.0 17.0 0.00 0.00 0.00 74 1018.8
20240517205016 64 123 8.0 17.0 0.00 0.00 0.00 73 1018.9
20240517204516 64 123 12.0 17.0 0.00 0.00 0.00 72 1018.8
20240517204012 64 137 8.0 15.0 0.00 0.00 0.00 72 1018.8
20240517203514 64 143 8.0 15.0 0.00 0.00 0.00 73 1018.8
20240517203023 64 123 9.0 15.0 0.00 0.00 0.00 72 1018.8
20240517202513 64 142 8.0 17.0 0.00 0.00 0.00 72 1018.8
20240517202012 64 92 4.0 17.0 0.00 0.00 0.00 72 1018.7
20240517201515 65 109 10.0 17.0 0.00 0.00 0.00 73 1018.7
20240517201012 65 126 10.0 17.0 0.00 0.00 0.00 71 1018.6
20240517200516 65 157 7.0 13.0 0.00 0.00 0.00 71 1018.7
20240517200017 65 61 5.0 13.0 0.00 0.00 0.00 72 1018.7
20240517195513 65 106 8.0 15.0 0.00 0.00 0.00 73 1018.6
20240517195012 65 115 4.0 15.0 0.00 0.00 0.00 74 1018.7
20240517194517 64 115 7.0 17.0 0.00 0.00 0.00 74 1018.8
20240517194014 64 88 9.0 18.0 0.00 0.00 0.00 73 1018.8
20240517193513 65 128 9.0 19.0 0.00 0.00 0.00 72 1018.8
20240517193017 65 121 11.0 19.0 0.00 0.00 0.00 72 1018.7
20240517192512 65 155 9.0 18.0 0.00 0.00 0.00 73 1018.7
20240517192012 65 124 8.0 15.0 0.00 0.00 0.00 73 1018.7
20240517191517 65 108 4.0 16.0 0.00 0.00 0.00 72 1018.8
20240517191014 66 96 8.0 19.0 0.00 0.00 0.00 70 1018.7
20240517190512 67 96 11.0 19.0 0.00 0.00 0.00 70 1018.6
20240517190017 67 134 8.0 18.0 0.00 0.00 0.00 69 1018.7
20240517185517 68 130 9.0 17.0 0.00 0.00 0.00 66 1018.6
20240517185012 68 105 9.0 23.0 0.00 0.00 0.00 65 1018.6
20240517184534 68 132 11.0 23.0 0.00 0.00 0.00 63 1018.6
20240517184015 69 105 12.0 20.0 0.00 0.00 0.00 61 1018.5
20240517183513 69 131 11.0 20.0 0.00 0.00 0.00 60 1018.4
20240517183015 70 103 9.0 23.0 0.00 0.00 0.00 60 1018.5
20240517182513 70 117 7.0 23.0 0.00 0.00 0.00 59 1018.3
20240517182014 70 90 12.0 23.0 0.00 0.00 0.00 56 1018.4
20240517181514 70 142 10.0 24.0 0.00 0.00 0.00 57 1018.3
20240517181015 70 117 11.0 24.0 0.00 0.00 0.00 56 1018.3
20240517180513 70 113 13.0 23.0 0.00 0.00 0.00 60 1018.1
20240517180025 69 125 9.0 24.0 0.00 0.00 0.00 61 1018.1
20240517175515 69 108 11.0 24.0 0.00 0.00 0.00 62 1018.2
20240517175018 69 109 12.0 24.0 0.00 0.00 0.00 62 1018.2
20240517174518 70 103 10.0 21.0 0.00 0.00 0.00 64 1018.2
20240517174012 70 107 10.0 19.0 0.00 0.00 0.00 64 1018.3
20240517173512 70 101 10.0 19.0 0.00 0.00 0.00 65 1018.3
20240517173019 70 103 9.0 21.0 0.00 0.00 0.00 63 1018.3
20240517172514 70 76 10.0 21.0 0.00 0.00 0.00 64 1018.3
20240517172013 70 63 10.0 18.0 0.00 0.00 0.00 64 1018.4
20240517171515 70 85 10.0 20.0 0.00 0.00 0.00 61 1018.5
20240517171013 70 108 11.0 21.0 0.00 0.00 0.00 61 1018.6
20240517170513 70 62 11.0 22.0 0.00 0.00 0.00 63 1018.5
20240517170015 70 111 11.0 22.0 0.00 0.00 0.00 63 1018.6
20240517165514 70 34 12.0 23.0 0.00 0.00 0.00 61 1018.6
20240517165015 70 108 11.0 23.0 0.00 0.00 0.00 63 1018.5
20240517164514 71 101 13.0 22.0 0.00 0.00 0.00 60 1018.4
20240517164013 71 88 8.0 19.0 0.00 0.00 0.00 61 1018.3
20240517163512 71 85 7.0 19.0 0.00 0.00 0.00 62 1018.3
20240517163017 70 71 11.0 23.0 0.00 0.00 0.00 61 1018.2
20240517162513 71 98 12.0 23.0 0.00 0.00 0.00 60 1018.2
20240517162015 71 90 12.0 23.0 0.00 0.00 0.00 62 1018.2
20240517161519 71 107 9.0 22.0 0.00 0.00 0.00 61 1018.2
20240517161013 70 172 8.0 18.0 0.00 0.00 0.00 65 1018.2
20240517160513 70 79 8.0 22.0 0.00 0.00 0.00 65 1018.4
20240517160015 70 104 10.0 22.0 0.00 0.00 0.00 63 1018.3
20240517155515 70 119 10.0 19.0 0.00 0.00 0.00 61 1018.3
20240517155014 70 97 7.0 19.0 0.00 0.00 0.00 60 1018.4
20240517154514 71 99 11.0 23.0 0.00 0.00 0.00 60 1018.4
20240517154012 71 84 11.0 23.0 0.00 0.00 0.00 61 1018.4
20240517153513 71 104 7.0 15.0 0.00 0.00 0.00 61 1018.5
20240517153016 70 70 7.0 20.0 0.00 0.00 0.00 62 1018.5
20240517152514 70 87 8.0 20.0 0.00 0.00 0.00 63 1018.5
20240517152014 70 150 5.0 15.0 0.00 0.00 0.00 62 1018.5
20240517151520 70 108 9.0 15.0 0.00 0.00 0.00 64 1018.6
20240517151013 70 16 7.0 15.0 0.00 0.00 0.00 66 1018.5
20240517150513 70 74 7.0 14.0 0.00 0.00 0.00 66 1018.6
20240517150017 70 119 7.0 16.0 0.00 0.00 0.00 66 1018.6
20240517145514 70 61 10.0 16.0 0.00 0.00 0.00 63 1018.7
20240517145012 69 96 6.0 13.0 0.00 0.00 0.00 64 1018.6
20240517144526 69 103 5.0 14.0 0.00 0.00 0.00 69 1018.7
20240517144014 68 96 7.0 14.0 0.00 0.00 0.00 65 1018.7
20240517143514 69 96 6.0 14.0 0.00 0.00 0.00 65 1018.8
20240517143018 68 104 5.0 14.0 0.00 0.00 0.00 69 1018.8
20240517142514 68 182 5.0 13.0 0.00 0.00 0.00 67 1018.8
20240517142014 67 36 6.0 15.0 0.00 0.00 0.00 68 1018.8
20240517141515 67 98 8.0 15.0 0.00 0.00 0.00 68 1018.9
20240517141014 67 91 6.0 12.0 0.00 0.00 0.00 67 1019.0
20240517140514 66 107 7.0 16.0 0.00 0.00 0.00 68 1019.2
20240517140033 67 117 7.0 16.0 0.00 0.00 0.00 67 1019.2
20240517135512 66 86 8.0 16.0 0.00 0.00 0.00 69 1019.1
20240517135014 66 96 5.0 15.0 0.00 0.00 0.00 68 1019.2
20240517134523 66 88 6.0 15.0 0.00 0.00 0.00 69 1019.3
20240517134013 65 80 10.0 15.0 0.00 0.00 0.00 71 1019.4
20240517133511 65 98 8.0 14.0 0.00 0.00 0.00 71 1019.4
20240517133019 65 49 5.0 14.0 0.00 0.00 0.00 70 1019.5
20240517132511 65 74 4.0 13.0 0.00 0.00 0.00 73 1019.6
20240517132014 65 118 7.0 13.0 0.00 0.00 0.00 71 1019.4
20240517131516 65 121 7.0 13.0 0.00 0.00 0.00 70 1019.5
20240517131013 65 88 7.0 13.0 0.00 0.00 0.00 71 1019.4
20240517130512 65 80 7.0 13.0 0.00 0.00 0.00 72 1019.5
20240517130024 64 82 6.0 14.0 0.00 0.00 0.00 74 1019.5
20240517125518 64 105 5.0 14.0 0.00 0.00 0.00 76 1019.4
20240517125014 63 75 9.0 14.0 0.00 0.00 0.00 78 1019.4
20240517124528 62 116 2.0 10.0 0.00 0.00 0.00 80 1019.5
20240517124015 62 90 5.0 12.0 0.00 0.00 0.00 80 1019.6
20240517123513 61 50 5.0 12.0 0.00 0.00 0.00 79 1019.5
20240517123014 61 67 7.0 12.0 0.00 0.00 0.00 79 1019.4
20240517122512 61 102 3.0 11.0 0.00 0.00 0.00 80 1019.4
20240517122012 60 57 6.0 11.0 0.00 0.00 0.00 79 1019.5
20240517121523 60 48 6.0 11.0 0.00 0.00 0.00 79 1019.5
20240517121012 60 57 4.0 11.0 0.00 0.00 0.00 80 1019.4
20240517120513 59 50 4.0 11.0 0.00 0.00 0.00 79 1019.3
20240517120018 59 53 4.0 12.0 0.00 0.00 0.00 80 1019.3
20240517115512 59 44 6.0 12.0 0.00 0.00 0.00 79 1019.3
20240517115012 59 21 5.0 12.0 0.00 0.00 0.00 80 1019.1
20240517114519 59 42 6.0 11.0 0.00 0.00 0.00 80 1019.2
20240517114015 59 30 4.0 11.0 0.00 0.00 0.00 82 1019.1
20240517113513 59 348 4.0 12.0 0.00 0.00 0.00 82 1018.9
20240517113015 59 360 6.0 12.0 0.00 0.00 0.00 82 1018.9
20240517112512 59 26 5.0 10.0 0.00 0.00 0.00 83 1018.8
20240517112012 58 31 4.0 13.0 0.00 0.00 0.00 84 1018.8
20240517111519 58 51 7.0 13.0 0.00 0.00 0.00 84 1018.6
20240517111011 58 22 5.0 13.0 0.00 0.00 0.00 85 1018.6
20240517110512 58 5 6.0 13.0 0.00 0.00 0.00 86 1018.6
20240517110013 57 40 7.0 13.0 0.00 0.00 0.00 86 1018.5
20240517105517 57 13 7.0 14.0 0.00 0.00 0.00 87 1018.4
20240517105012 57 28 8.0 14.0 0.00 0.00 0.00 87 1018.3
20240517104518 57 360 8.0 13.0 0.00 0.00 0.00 88 1018.3
20240517104012 57 23 7.0 13.0 0.00 0.00 0.00 88 1018.3
20240517103512 57 40 8.0 14.0 0.00 0.00 0.00 89 1018.3
20240517103015 56 42 9.0 15.0 0.00 0.00 0.00 89 1018.1
20240517102512 56 20 8.0 15.0 0.00 0.00 0.00 90 1017.8
20240517102012 56 355 9.0 14.0 0.00 0.00 0.00 90 1017.6
20240517101515 56 344 7.0 13.0 0.00 0.00 0.00 91 1017.6
20240517101011 56 5 9.0 13.0 0.00 0.00 0.00 91 1017.4
20240517100511 56 13 8.0 13.0 0.00 0.00 0.00 91 1017.3
20240517100013 56 18 8.0 13.0 0.00 0.00 0.00 91 1017.3
20240517095515 56 32 8.0 12.0 0.00 0.02 0.00 91 1017.2
20240517095013 55 68 7.0 13.0 0.00 0.02 0.00 91 1017.1
20240517094515 55 360 8.0 13.0 0.00 0.02 0.00 92 1016.9
20240517094013 55 44 7.0 13.0 0.00 0.02 0.00 92 1016.8
20240517093511 55 33 8.0 14.0 0.00 0.02 0.00 92 1016.8
20240517093017 55 17 8.0 14.0 0.00 0.02 0.00 92 1016.7
20240517092513 55 55 7.0 13.0 0.00 0.02 0.00 93 1016.7
20240517092012 54 11 6.0 11.0 0.00 0.02 0.00 93 1016.7
20240517091517 54 86 5.0 11.0 0.00 0.02 0.00 93 1016.6
20240517091015 54 42 6.0 12.0 0.00 0.02 0.00 92 1016.6
20240517090512 54 20 6.0 12.0 0.00 0.02 0.00 92 1016.6
20240517090018 54 12 6.0 11.0 0.00 0.02 0.00 92 1016.7
20240517085513 54 34 5.0 10.0 0.00 0.02 0.00 92 1016.7
20240517085012 54 36 6.0 10.0 0.00 0.02 0.00 92 1016.8
20240517084513 54 38 6.0 10.0 0.00 0.02 0.00 92 1016.8
20240517084012 54 36 6.0 11.0 0.00 0.02 0.00 92 1016.7
20240517083513 54 51 6.0 11.0 0.00 0.02 0.00 92 1016.5
20240517083031 54 38 6.0 11.0 0.00 0.02 0.00 92 1016.4
20240517082512 54 34 5.0 11.0 0.00 0.02 0.00 92 1016.5
20240517082013 54 63 5.0 10.0 0.00 0.02 0.00 92 1016.5
20240517081515 54 49 5.0 11.0 0.00 0.02 0.00 92 1016.5
20240517081012 54 36 6.0 11.0 0.00 0.02 0.00 92 1016.4
20240517080512 54 25 6.0 10.0 0.00 0.02 0.00 92 1016.4
20240517080015 54 38 6.0 13.0 0.00 0.02 0.00 92 1016.4
20240517075512 54 51 6.0 13.0 0.00 0.02 0.00 92 1016.3
20240517075013 54 44 5.0 10.0 0.00 0.02 0.00 92 1016.2
20240517074515 54 34 5.0 9.0 0.00 0.02 0.00 92 1016.2
20240517074012 54 34 5.0 10.0 0.00 0.02 0.00 92 1016.2
20240517073512 54 28 5.0 10.0 0.00 0.02 0.00 92 1016.2
20240517073016 54 40 6.0 10.0 0.00 0.02 0.00 92 1016.3
20240517072512 54 51 5.0 10.0 0.00 0.02 0.00 92 1016.2
20240517072013 54 46 6.0 10.0 0.00 0.02 0.00 92 1016.2
20240517071516 54 32 6.0 10.0 0.00 0.02 0.00 93 1016.3
20240517071013 54 15 6.0 10.0 0.00 0.02 0.00 93 1016.2
20240517070513 53 21 5.0 10.0 0.00 0.02 0.00 93 1016.2
20240517070025 53 17 6.0 10.0 0.00 0.02 0.00 93 1016.2
20240517065513 53 13 6.0 10.0 0.00 0.02 0.00 93 1016.2
20240517065016 53 13 6.0 10.0 0.00 0.02 0.00 93 1016.2
20240517064520 53 5 6.0 10.0 0.00 0.02 0.00 93 1016.2
20240517064013 53 5 6.0 10.0 0.00 0.02 0.00 93 1016.3
20240517063513 54 28 5.0 10.0 0.00 0.02 0.00 93 1016.4
20240517063017 54 30 5.0 9.0 0.00 0.02 0.00 93 1016.4
20240517062513 54 46 6.0 10.0 0.00 0.02 0.00 93 1016.5
20240517062012 54 22 5.0 10.0 0.00 0.02 0.00 93 1016.5
20240517061520 54 14 5.0 10.0 0.00 0.02 0.00 93 1016.5
20240517061012 54 26 6.0 9.0 0.00 0.02 0.00 93 1016.5
20240517060513 54 20 5.0 9.0 0.00 0.02 0.00 93 1016.5
20240517060016 54 11 5.0 9.0 0.00 0.02 0.00 93 1016.5
20240517055512 54 352 4.0 11.0 0.00 0.02 0.00 93 1016.5
20240517055012 53 32 5.0 11.0 0.00 0.02 0.00 93 1016.4
20240517054521 53 28 6.0 10.0 0.00 0.02 0.00 93 1016.3
20240517054012 53 10 6.0 10.0 0.00 0.02 0.00 94 1016.3
20240517053513 53 9 5.0 9.0 0.00 0.02 0.00 94 1016.3
20240517053013 53 32 5.0 9.0 0.00 0.02 0.00 93 1016.4
20240517052513 53 20 5.0 8.0 0.00 0.02 0.00 93 1016.5
20240517052013 53 45 5.0 8.0 0.00 0.02 0.00 93 1016.5
20240517051525 53 18 5.0 8.0 0.00 0.02 0.00 93 1016.6
20240517051012 53 20 5.0 8.0 0.00 0.02 0.00 93 1016.7
20240517050513 53 14 5.0 8.0 0.00 0.02 0.00 93 1016.7
20240517050019 53 51 5.0 6.0 0.00 0.02 0.00 94 1016.8
20240517045512 53 33 5.0 8.0 0.00 0.02 0.00 94 1016.8
20240517045014 53 38 5.0 8.0 0.00 0.02 0.00 94 1016.8
20240517044516 53 38 4.0 6.0 0.00 0.02 0.00 94 1016.9
20240517044011 52 59 4.0 6.0 0.00 0.02 0.00 94 1016.8
20240517043514 53 57 3.0 5.0 0.00 0.02 0.00 94 1016.8
20240517043014 52 59 3.0 5.0 0.00 0.02 0.00 94 1016.9
20240517042515 52 69 3.0 5.0 0.00 0.02 0.00 93 1017.0
20240517042012 52 78 3.0 6.0 0.00 0.02 0.00 93 1017.0
20240517041520 52 63 4.0 6.0 0.00 0.02 0.00 94 1017.1
20240517041011 52 57 3.0 5.0 0.00 0.02 0.00 93 1017.1
20240517040514 52 80 3.0 6.0 0.00 0.02 0.00 93 1017.0
20240517040019 52 84 3.0 6.0 0.00 0.02 0.00 93 1017.0
20240517035513 52 78 3.0 4.0 0.00 0.02 0.02 93 1017.1
20240517035011 53 91 2.0 4.0 0.00 0.02 0.02 93 1017.1
20240517034514 53 100 2.0 4.0 0.00 0.02 0.02 93 1017.2